User: anonymous   Login
Location: Unspecified
(0.0000°N, 0.0000°E)
Time: 06:45:19
(UTC+00:00)
Language:

TBA - TO BE ASSIGNED - Orbit

View from above orbital plane
View from above orbital plane
View from above satellite
View from above satellite

Ground track
Ground track

The orbit is defined by the following mean orbital elements,

1 69037U          26145.58335647 +.00000000 +00000-0 -18301-1 0 00002
2 69037  97.2847   0.3651 0001346  84.1089 245.8292 15.69585031    08
Epoch (UTC): 25 May 2026 14:00:01
Eccentricity: 0.0001346
inclination: 97.2847°
perigee height: 359 km
apogee height: 361 km
right ascension of ascending node: 0.3651°
argument of perigee: 84.1089°
revolutions per day: 15.69585031
mean anomaly at epoch: 245.8292°

The dashed part of the orbit path shows where the satellite is in the earth's shadow,  

DLR